Tracking 29034 objects as of 25-Jun-2024
HD Live streaming from Space Station
objects crossing your sky now

STARLINK-31310

Track STARLINK-31310 now!
10-day predictions
STARLINK-31310 is classified as:


NORAD ID: 59092
Int'l Code: 2024-041U
Perigee: 494.5 km
Apogee: 495.8 km
Inclination: 43.0 °
Period: 94.4 minutes
Semi major axis: 6866 km
RCS: Unknown
Launch date: February 29, 2024
Source: United States (US)
Launch site: AIR FORCE EASTERN TEST RANGE (AFETR)
Your satellite tracking list
Your tracking list is empty




NASA's NSSDC Master Catalog

Two Line Element Set (TLE):
1 59092U 24041U   24176.19191432  .00005391  00000-0  21572-3 0  9994
2 59092  42.9987 226.8852 0000956 255.7825 104.2920 15.25916861 18970
Source of the keplerian elements: AFSPC